TimeEST,TemperatureF,Dew PointF,Humidity,Sea Level PressureIn,VisibilityMPH,Wind Direction,Wind SpeedMPH,Gust SpeedMPH,PrecipitationIn,Events,Conditions,WindDirDegrees,DateUTC
12:53 AM,72.0,55.9,57,30.17,10.0,ENE,9.2,-,N/A,,Scattered Clouds,60,2011-11-25 05:53:00
1:53 AM,73.0,59.0,61,30.16,10.0,ENE,17.3,24.2,N/A,,Mostly Cloudy,70,2011-11-25 06:53:00
2:53 AM,72.0,53.1,51,30.15,10.0,ENE,10.4,-,N/A,,Scattered Clouds,70,2011-11-25 07:53:00
3:53 AM,72.0,54.0,53,30.15,10.0,East,12.7,-,N/A,,Mostly Cloudy,80,2011-11-25 08:53:00
4:53 AM,73.0,55.0,53,30.16,10.0,ENE,12.7,-,N/A,,Mostly Cloudy,70,2011-11-25 09:53:00
5:53 AM,73.0,54.0,51,30.16,10.0,East,17.3,21.9,N/A,,Mostly Cloudy,90,2011-11-25 10:53:00
6:53 AM,72.0,55.0,55,30.18,10.0,East,17.3,-,N/A,,Mostly Cloudy,90,2011-11-25 11:53:00
7:53 AM,73.0,55.9,55,30.19,10.0,East,13.8,-,N/A,,Mostly Cloudy,90,2011-11-25 12:53:00
8:53 AM,73.9,57.9,57,30.20,10.0,East,12.7,21.9,N/A,,Mostly Cloudy,80,2011-11-25 13:53:00
9:53 AM,77.0,57.0,50,30.21,10.0,ENE,16.1,29.9,0.00,,Mostly Cloudy,70,2011-11-25 14:53:00
10:53 AM,77.0,55.0,47,30.21,10.0,ENE,15.0,-,N/A,,Mostly Cloudy,70,2011-11-25 15:53:00
11:53 AM,77.0,55.0,47,30.19,10.0,ENE,20.7,25.3,N/A,,Mostly Cloudy,70,2011-11-25 16:53:00
12:53 PM,75.9,57.9,54,30.17,10.0,East,15.0,-,N/A,,Mostly Cloudy,80,2011-11-25 17:53:00
1:53 PM,77.0,57.0,50,30.15,10.0,ENE,16.1,21.9,N/A,,Mostly Cloudy,70,2011-11-25 18:53:00
2:53 PM,77.0,57.9,52,30.14,10.0,ENE,13.8,-,N/A,,Mostly Cloudy,70,2011-11-25 19:53:00
3:53 PM,77.0,59.0,54,30.13,10.0,East,13.8,21.9,N/A,,Mostly Cloudy,80,2011-11-25 20:53:00
4:53 PM,75.0,59.0,57,30.14,10.0,ENE,11.5,-,N/A,,Mostly Cloudy,70,2011-11-25 21:53:00
5:53 PM,73.9,55.9,53,30.13,10.0,East,11.5,-,N/A,,Mostly Cloudy,80,2011-11-25 22:53:00
6:53 PM,73.9,61.0,64,30.14,10.0,East,10.4,-,N/A,,Scattered Clouds,80,2011-11-25 23:53:00
7:53 PM,73.9,63.0,68,30.15,10.0,East,16.1,21.9,N/A,,Scattered Clouds,80,2011-11-26 00:53:00
8:53 PM,73.9,63.0,68,30.16,10.0,East,17.3,-,N/A,,Mostly Cloudy,90,2011-11-26 01:53:00
9:53 PM,73.9,55.0,52,30.17,10.0,East,18.4,24.2,N/A,,Scattered Clouds,90,2011-11-26 02:53:00
10:53 PM,73.9,57.0,55,30.17,10.0,East,19.6,25.3,N/A,,Scattered Clouds,100,2011-11-26 03:53:00
11:53 PM,73.9,60.1,62,30.16,10.0,East,13.8,-,N/A,,Scattered Clouds,80,2011-11-26 04:53:00